Meteopurmerend
purmerend
Purmerend - Baaienwijk



My webcam  My webcam


waarschuwing voor Onweer Meer informatie blitzortung!


Regen radar Meer informatie rain snow radar


Bezoek onze andere website:

CandyAppleRed WebdesignWebdesign Purmerend Candy Apple Red

MeteopurmerendBlog

Template documentation
and downloads



Onweer van: 26-07-2021 13:00 tot: 21:00 waarschuwing voor: Onweer niveau: Geel info button
Enkele onweersbuien, lokaal met hagel en veel neerslag in korte tijd.Kans op blikseminslag, hagel en veel neerslag in korte tijd.Verkeer en buitenactiviteiten kunnen hinder ondervinden.Mijd open water en open gebied, schuil niet onder bomen.Volg weerberichten en waarschuwingen.

15 daagse weersverwachting Innsbruck (AT)

  • Overzicht
  • Per uur
  • 15 dagen
  • Extra
  • Vergelijk
  • Kaarten
  • Dagkaart
  • Meer »
  • Info
  • Statistieken
  • Directe link
    Temp 6h Neerslag Wind  
 05:48     20:55    Daglengte: 15:07 Vandaag
20:00
18°
9.9 mm
1
warningclass
 05:49     20:54    Daglengte: 15:05 Morgen
02:00
14°
4.1 mm
1
08:00
15°
4.4 mm
1
14:00
22°
 
2
20:00
19°
9.8 mm
1
warningclass
 05:50     20:52    Daglengte: 15:02 Woensdag 28 Jul
02:00
15°
 
1
08:00
16°
 
1
14:00
18°
25.9 mm
1
warningclass
20:00
16°
47.1 mm
1
warningclass
 05:51     20:51    Daglengte: 15:00 Donderdag 29 Jul
02:00
14°
 
1
08:00
15°
 
1
14:00
22°
 
1
Locatie info
Region: Tirol
Latitude: 47.2680°N
Longitude: 11.3913°E
587 masl
Postcode: 6020
Temp/Neerslag /Baro Onweer/Dauwpunt
    Temp Baro 1h Neerslag Dauwpunt Wind UV Bewolking  
 05:48     20:55    Daglengte: 15:07 Vandaag
17:00
21°
1012.8 hPa
48%
18.1°
1
Windvlaag: 5.6 m/s
47%
18:00
20°
1013.3 hPa 3.1 mm
80%
16.5°
1
Windvlaag: 3.4 m/s
50% warningclass
19:00
19°
1013.8 hPa 3.3 mm
81%
15.0°
1
Windvlaag: 2.6 m/s
58%
20:00
18°
1014.9 hPa 3.5 mm
82%
14.6°
1
Windvlaag: 1.6 m/s
62% warningclass
21:00
17°
1015.6 hPa
82%
14.4°
1
Windvlaag: 0.8 m/s
76% warningclass
22:00
16°
1016.8 hPa 4.1 mm
76%
14.8°
1
Windvlaag: -0.5 m/s
76%
23:00
15°
1016.8 hPa
28%
14.7°
1
Windvlaag: -0.7 m/s
53%
 05:49     20:54    Daglengte: 15:05 Morgen
00:00
15°
1017.0 hPa
21%
14.0°
1
Windvlaag: -0.9 m/s
50%
01:00
15°
1017.2 hPa
58%
13.5°
1
Windvlaag: -1 m/s
50%
02:00
14°
1017.2 hPa
64%
13.2°
1
Windvlaag: -0.6 m/s
58%
03:00
14°
1017.4 hPa 4.4 mm
66%
12.9°
1
Windvlaag: -0.3 m/s
57%
04:00
14°
1017.4 hPa
64%
12.6°
1
Windvlaag: -0.1 m/s
73%
05:00
13°
1017.2 hPa
25%
12.4°
1
Windvlaag: -0.3 m/s
78%
06:00
13°
1017.3 hPa
58%
12.2°
1
Windvlaag: -1 m/s
66%
07:00
14°
1017.5 hPa
24%
12.4°
1
Windvlaag: -1.5 m/s
36%
08:00
15°
1017.4 hPa
16%
13.3°
1
Windvlaag: -1.3 m/s
51%
09:00
17°
1017.3 hPa
14%
13.5°
1
Windvlaag: -0.9 m/s
9%
10:00
18°
1016.9 hPa
14%
13.2°
1
Windvlaag: -0.6 m/s
26%
11:00
19°
1016.4 hPa
30%
12.4°
1
Windvlaag: 1.1 m/s
13%
12:00
21°
1015.8 hPa
71%
13.0°
1
Windvlaag: 3.6 m/s
13%
13:00
22°
1015.2 hPa
45%
13.9°
2
Windvlaag: 7.9 m/s
11%
14:00
22°
1014.4 hPa
80%
12.6°
2
Windvlaag: 8.6 m/s
20%
15:00
23°
1014.0 hPa
38%
13.3°
2
Windvlaag: 8.1 m/s
46%
16:00
23°
1013.8 hPa
36%
14.3°
1
Windvlaag: 8.4 m/s
41%
17:00
22°
1014.4 hPa 4.7 mm
78%
13.6°
2
Windvlaag: 7.2 m/s
58% warningclass
18:00
21°
1014.9 hPa
81%
12.9°
1
Windvlaag: 3.5 m/s
58%
19:00
20°
1015.0 hPa
77%
13.3°
1
Windvlaag: 2.1 m/s
39%
20:00
19°
1015.6 hPa 5.0 mm
76%
13.9°
1
Windvlaag: 1.1 m/s
37% warningclass
21:00
18°
1016.0 hPa
71%
14.7°
1
Windvlaag: 0 m/s
36%
22:00
17°
1016.3 hPa
34%
15.7°
1
Windvlaag: 0.1 m/s
43%
23:00
16°
1016.6 hPa
17%
15.4°
1
Windvlaag: 1.7 m/s
33%
 05:50     20:52    Daglengte: 15:02 Woensdag 28 Jul
00:00
16°
1016.6 hPa
14%
15.3°
1
Windvlaag: 2 m/s
42%
01:00
15°
1016.3 hPa
14%
14.8°
1
Windvlaag: 1.1 m/s
16%
02:00
15°
1016.0 hPa
15%
14.0°
1
Windvlaag: 1 m/s
16%
03:00
14°
1015.8 hPa
15%
13.4°
0
Windvlaag: 1.5 m/s
28%
04:00
14°
1015.5 hPa
16%
13.0°
0
Windvlaag: 0.4 m/s
32%
05:00
14°
1015.4 hPa
29%
12.7°
0
Windvlaag: -0.6 m/s
48%
06:00
14°
1015.6 hPa
59%
12.7°
1
Windvlaag: -0.6 m/s
57%
07:00
14°
1015.9 hPa
68%
13.4°
1
Windvlaag: 0.6 m/s
40%
08:00
16°
1015.9 hPa
69%
14.4°
1
Windvlaag: -0.6 m/s
31%
09:00
18°
1015.9 hPa
74%
13.2°
1
Windvlaag: -0.9 m/s
36%
10:00
19°
1015.8 hPa
80%
12.2°
1
Windvlaag: 0.2 m/s
62%
11:00
19°
1015.1 hPa 8.6 mm
100%
12.1°
1
Windvlaag: 1 m/s
82%
12:00
19°
1014.6 hPa 5.3 mm
100%
11.8°
1
Windvlaag: 1.9 m/s
83%
13:00
18°
1014.7 hPa 5.8 mm
100%
15.8°
2
Windvlaag: 3.1 m/s
97%
14:00
18°
1014.9 hPa 6.2 mm
100%
14.5°
1
Windvlaag: 3.1 m/s
99% warningclass
15:00
17°
1015.2 hPa 6.8 mm
100%
15.4°
1
Windvlaag: 3 m/s
97% warningclass
16:00
17°
1015.8 hPa 7.1 mm
100%
13.1°
0
Windvlaag: 3.2 m/s
100% warningclass
17:00
17°
1016.5 hPa 8.7 mm
100%
12.6°
1
Windvlaag: 5.9 m/s
86% warningclass
18:00
16°
1016.5 hPa 8.2 mm
92%
11.6°
1
Windvlaag: 2.4 m/s
90% warningclass
19:00
16°
1016.5 hPa 6.5 mm
90%
11.9°
1
Windvlaag: 2.3 m/s
79% warningclass
20:00
16°
1016.8 hPa 9.9 mm
80%
11.8°
1
Windvlaag: 1.3 m/s
62% warningclass
21:00
15°
1017.2 hPa
27%
12.6°
1
Windvlaag: 1.4 m/s
70%
22:00
14°
1017.5 hPa
26%
13.0°
1
Windvlaag: -0.1 m/s
45%
23:00
14°
1017.3 hPa
69%
12.5°
1
Windvlaag: -0.5 m/s
47%
 05:51     20:51    Daglengte: 15:00 Donderdag 29 Jul
00:00
14°
1017.3 hPa
28%
12.2°
1
Windvlaag: -0.7 m/s
60%
01:00
14°
1017.1 hPa
26%
11.6°
1
Windvlaag: -0.4 m/s
49%
02:00
14°
1016.8 hPa
29%
11.5°
1
Windvlaag: -0.4 m/s
55%
03:00
14°
1016.5 hPa
25%
10.4°
1
Windvlaag: -0.1 m/s
43%
04:00
14°
1016.4 hPa
23%
9.8°
1
Windvlaag: 0 m/s
46%
05:00
13°
1016.5 hPa
21%
8.4°
0
Windvlaag: -0.9 m/s
38%
06:00
13°
1016.4 hPa
21%
8.3°
0
Windvlaag: -0.7 m/s
38%
07:00
14°
1016.6 hPa
21%
7.8°
0
Windvlaag: -0.7 m/s
35%
08:00
15°
1016.4 hPa
21%
9.3°
1
Windvlaag: -0.3 m/s
38%
09:00
17°
1016.2 hPa
21%
10.3°
1
Windvlaag: 5.3 m/s
8%
10:00
18°
1015.8 hPa
22%
10.6°
1
Windvlaag: 3.8 m/s
31%
11:00
20°
1015.5 hPa
21%
11.5°
0
Windvlaag: 3.5 m/s
42%
12:00
21°
1014.9 hPa
21%
13.2°
1
Windvlaag: 2.7 m/s
18%
13:00
22°
1014.3 hPa
21%
14.2°
1
Windvlaag: 3.8 m/s
18%
14:00
22°
1013.8 hPa
21%
17.5°
1
Windvlaag: 3.6 m/s
25%
Temp/Neerslag /Baro Onweer/Dauwpunt
    Temp Baro Neerslag Dauwpunt Wind Bewolking  
 05:48     20:55    Daglengte: 15:07 Vandaag
17:00
21°
1012.8 hPa   18.1°
1
47%
20:00
18°
1014.9 hPa 9.9 mm 14.6°
1
62% warningclass
23:00
15°
1016.8 hPa 4.1 mm 14.7°
1
53%
 05:49     20:54    Daglengte: 15:05 Morgen
02:00
14°
1017.2 hPa   13.2°
1
58%
05:00
13°
1017.2 hPa 4.4 mm 12.4°
1
78%
08:00
15°
1017.4 hPa   13.3°
1
51%
11:00
19°
1016.4 hPa   12.4°
1
13%
14:00
22°
1014.4 hPa   12.6°
2
20%
17:00
22°
1014.4 hPa 4.7 mm 13.6°
2
58% warningclass
20:00
19°
1015.6 hPa 5.0 mm 13.9°
1
37% warningclass
23:00
16°
1016.6 hPa   15.4°
1
33%
 05:50     20:52    Daglengte: 15:02 Woensdag 28 Jul
02:00
15°
1016.0 hPa   14.0°
1
16%
05:00
14°
1015.4 hPa   12.7°
0
48%
08:00
16°
1015.9 hPa   14.4°
1
31%
11:00
19°
1015.1 hPa 8.6 mm 12.1°
1
82%
14:00
18°
1014.9 hPa 17.3 mm 14.5°
1
99% warningclass
17:00
17°
1016.5 hPa 22.5 mm 12.6°
1
86% warningclass
20:00
16°
1016.8 hPa 24.6 mm 11.8°
1
62% warningclass
23:00
14°
1017.3 hPa   12.5°
1
47%
 05:51     20:51    Daglengte: 15:00 Donderdag 29 Jul
02:00
14°
1016.8 hPa   11.5°
1
55%
05:00
13°
1016.5 hPa   8.4°
0
38%
08:00
15°
1016.4 hPa   9.3°
1
38%
11:00
20°
1015.5 hPa   11.5°
0
42%
14:00
22°
1013.8 hPa   17.5°
1
25%
17:00
23°
1014.4 hPa 34.1 mm 20.0°
2
1%
20:00
21°
1015.3 hPa 36.1 mm 18.8°
2
1%
23:00
18°
1016.5 hPa 37.0 mm 17.9°
0
1%
 05:53     20:50    Daglengte: 14:57 Vrijdag 30 Jul
02:00
18°
1015.6 hPa 38.6 mm 17.7°
1
1%
05:00
17°
1015.4 hPa 40.7 mm 17.0°
1
1%
08:00
19°
1015.6 hPa 41.4 mm 17.8°
0
1%
11:00
24°
1013.7 hPa 42.0 mm 18.7°
1
1%
14:00
28°
1011.4 hPa 43.1 mm 17.6°
2
1%
17:00
29°
1010.1 hPa 44.3 mm 16.8°
2
1%
20:00
21°
1012.9 hPa 51.0 mm 18.9°
3
1%
23:00
18°
1014.2 hPa 57.0 mm 17.6°
1
1%
 05:54     20:48    Daglengte: 14:54 Zaterdag 31 Jul
02:00
18°
1013.3 hPa 57.3 mm 17.2°
2
1%
05:00
18°
1013.0 hPa 60.1 mm 17.4°
2
1%
08:00
20°
1012.2 hPa 60.2 mm 18.1°
0
1%
11:00
25°
1010.3 hPa 60.8 mm 15.3°
1
0%
14:00
24°
1009.8 hPa 63.5 mm 18.0°
2
0%
17:00
22°
1010.3 hPa 68.7 mm 19.8°
2
1%
20:00
19°
1011.3 hPa 72.6 mm 18.4°
1
1%
23:00
18°
1012.8 hPa 75.8 mm 17.9°
1
1%
 05:55     20:47    Daglengte: 14:52 Zondag 01 Aug
02:00
17°
1012.0 hPa 79.2 mm 17.0°
2
1%
05:00
17°
1010.9 hPa 86.4 mm 16.5°
1
1%
08:00
15°
1009.8 hPa 87.9 mm 15.2°
2
1%
11:00
14°
1011.5 hPa 93.4 mm 14.0°
2
1%
14:00
12°
1014.9 hPa 105.5 mm 11.2°
1
1%
17:00
15°
1014.3 hPa 109.0 mm 11.8°
1
1%
20:00
15°
1014.0 hPa 109.0 mm 11.6°
0
1%
23:00
13°
1015.7 hPa 109.0 mm 10.4°
1
0%
 05:56     20:46    Daglengte: 14:50 Maandag 02 Aug
02:00
13°
1016.2 hPa 109.0 mm 10.8°
1
1%
05:00
12°
1016.6 hPa 109.1 mm 10.8°
0
1%
08:00
15°
1016.9 hPa 109.1 mm 11.2°
0
1%
11:00
19°
1016.0 hPa 109.3 mm 11.7°
2
1%
14:00
20°
1016.0 hPa 218.9 mm 11.4°
2
1%
20:00
17°
1017.4 hPa 220.7 mm 15.1°
1
1%
 05:58     20:44    Daglengte: 14:46 Dinsdag 03 Aug
02:00
14°
1019.0 hPa 221.2 mm 13.0°
1
1%
08:00
15°
1019.1 hPa 222.0 mm 14.8°
1
1%
14:00
21°
1017.9 hPa 226.7 mm 15.3°
1
1%
20:00
17°
1019.5 hPa 232.8 mm 15.9°
1
0%
 05:59     20:43    Daglengte: 14:44 Woensdag 04 Aug
02:00
13°
1021.0 hPa 233.5 mm 12.6°
1
0%
08:00
17°
1019.7 hPa 233.5 mm 15.4°
1
1%
14:00
28°
Voelt als: 27.5°
1015.4 hPa 233.5 mm 12.3°
1
1%
20:00
22°
1015.9 hPa 233.8 mm 17.0°
1
1%
 06:00     20:41    Daglengte: 14:41 Donderdag 05 Aug
02:00
16°
1018.1 hPa 236.7 mm 15.4°
2
1%
08:00
19°
1015.7 hPa 241.5 mm 17.1°
1
1%
14:00
23°
1013.6 hPa 1.7 mm 15.9°
0
59%
20:00
18°
1013.0 hPa 4.1 mm 16.8°
0
78%
 06:01     20:40    Daglengte: 14:39 Vrijdag 06 Aug
02:00
15°
1013.3 hPa 4.1 mm 14.6°
1
82%
08:00
16°
1011.9 hPa 2.7 mm 15.0°
1
84%
14:00
20°
1010.5 hPa 4.2 mm 15.7°
1
76%
20:00
16°
1010.5 hPa 5.3 mm 15.5°
1
84%
 06:03     20:38    Daglengte: 14:35 Zaterdag 07 Aug
02:00
14°
1011.7 hPa 3.1 mm 13.5°
1
84%
08:00
15°
1011.4 hPa 2.9 mm 13.7°
1
81%
14:00
19°
1010.6 hPa 3.0 mm 13.9°
1
79%
20:00
16°
1011.6 hPa 3.0 mm 13.7°
1
83%
 06:04     20:37    Daglengte: 14:33 Zondag 08 Aug
02:00
13°
1014.2 hPa 2.4 mm 12.1°
1
77%
08:00
14°
1014.8 hPa 1.2 mm 12.5°
1
81%
14:00
19°
1014.1 hPa 1.5 mm 13.8°
1
79%
20:00
16°
1015.4 hPa 2.7 mm 14.4°
1
76%
 06:05     20:35    Daglengte: 14:30 Maandag 09 Aug
02:00
13°
1017.8 hPa 1.5 mm 12.1°
1
66%
08:00
15°
1017.6 hPa 0.9 mm 13.1°
0
64%
14:00
22°
1016.6 hPa 1.2 mm 13.8°
1
58%
20:00
17°
1017.4 hPa 1.5 mm 15.1°
1
70%
 06:07     20:34    Daglengte: 14:27 Dinsdag 10 Aug
02:00
14°
1019.6 hPa 0.9 mm 13.1°
1
63%
08:00
15°
1019.5 hPa 1.3 mm 13.6°
0
57%
14:00
22°
1017.9 hPa 0.9 mm 13.8°
1
56%
  CAPE Lifted Index Hail Supercell Tornado SRH 3km CL BTM PRES CL TOP PRES Swiss DWD icon SMHI TS
 05:48     20:55    Daglengte: 15:07 Vandaag
17:00 0 J/kg -3.6 K 0 % 0 % 0 % 0 m²/s² 0 0 -3.6 80
18:00 0 J/kg -2.1 K 0 % 0 % 0 % 0 m²/s² 0 0 -1.83 95
19:00 198 J/kg -2.5 K 0 % 0 % 0 % 0 m²/s² 0 0 -1.27 80
20:00 172 J/kg -2.3 K 0 % 0 % 0 % 0 m²/s² 0 0 -2.18 95
21:00 59 J/kg -1.2 K 0 % 0 % 0 % 0 m²/s² 0 0 -0.9 95
22:00 95 J/kg -0.6 K 0 % 0 % 0 % 0 m²/s² 0 0 -0.42 80
23:00 52 J/kg -0.5 K 0 % 0 % 0 % 0 m²/s² 0 0 0.46 3
 05:49     20:54    Daglengte: 15:05 Morgen
00:00 0 J/kg 0.3 K 0 % 0 % 0 % 0 m²/s² 0 0 1.86 3
01:00 0 J/kg -0.3 K 0 % 0 % 0 % 0 m²/s² 0 0 0.72 3
02:00 0 J/kg 0.7 K 0 % 0 % 0 % 0 m²/s² 0 0 2.08 3
03:00 0 J/kg 0.4 K 0 % 0 % 0 % 0 m²/s² 0 0 2.11 3
04:00 0 J/kg 0.1 K 0 % 0 % 0 % 0 m²/s² 0 0 2.86 3
05:00 0 J/kg 0.9 K 0 % 0 % 0 % 0 m²/s² 0 0 4.26 3
06:00 0 J/kg 1.4 K 0 % 0 % 0 % 0 m²/s² 0 0 4.58 45
07:00 0 J/kg 1.9 K 0 % 0 % 0 % 0 m²/s² 0 0 4.99 3
08:00 0 J/kg 2.1 K 0 % 0 % 0 % 0 m²/s² 0 0 5.28 45
09:00 0 J/kg 1.9 K 0 % 0 % 0 % 0 m²/s² 0 0 5.08 2
10:00 0 J/kg 1.3 K 0 % 0 % 0 % 0 m²/s² 0 0 4.3 2
11:00 4 J/kg 0.5 K 0 % 0 % 0 % 0 m²/s² 0 0 2.69 2
12:00 75 J/kg 0.1 K 0 % 0 % 0 % 0 m²/s² 0 0 0.58 2
13:00 170 J/kg -1.2 K 0 % 0 % 0 % 0 m²/s² 0 0 -0.63 2
14:00 283 J/kg -2.2 K 0 % 0 % 0 % 0 m²/s² 0 0 -2.08 2
15:00 426 J/kg -2.8 K 0 % 0 % 0 % 0 m²/s² 0 0 -2.8 3
16:00 830 J/kg -3.8 K 0 % 0 % 0 % 0 m²/s² 0 0 -3.8 3
17:00 789 J/kg -3.7 K 0 % 0 % 0 % 0 m²/s² 0 0 -3.7 3
18:00 827 J/kg -3.5 K 0 % 0 % 0 % 0 m²/s² 0 0 -3.29 3
19:00 834 J/kg -3.3 K 0 % 0 % 0 % 0 m²/s² 0 0 -2.82 3
20:00 820 J/kg -3.2 K 0 % 0 % 0 % 0 m²/s² 0 0 -2.66 3
21:00 642 J/kg -2.7 K 0 % 0 % 0 % 0 m²/s² 0 0 -2.67 3
22:00 537 J/kg -2.7 K 0 % 0 % 0 % 0 m²/s² 0 0 -2.58 3
23:00 398 J/kg -2.3 K 0 % 0 % 0 % 0 m²/s² 0 0 -1.85 3
 05:50     20:52    Daglengte: 15:02 Woensdag 28 Jul
00:00 167 J/kg -1.7 K 0 % 0 % 0 % 0 m²/s² 0 0 -1.22 3
01:00 99 J/kg -1.4 K 0 % 0 % 0 % 0 m²/s² 0 0 -0.53 3
02:00 163 J/kg -1.5 K 0 % 0 % 0 % 0 m²/s² 0 0 -0.72 3
03:00 28 J/kg -1.2 K 0 % 0 % 0 % 0 m²/s² 0 0 -0.24 3
04:00 0 J/kg -1.3 K 0 % 0 % 0 % 0 m²/s² 0 0 -0.67 3
05:00 0 J/kg -0.9 K 0 % 0 % 0 % 0 m²/s² 0 0 -0.69 3
06:00 0 J/kg -1.0 K 0 % 0 % 0 % 0 m²/s² 0 0 -0.52 3
07:00 1 J/kg 0.1 K 0 % 0 % 0 % 0 m²/s² 0 0 0.67 3
08:00 0 J/kg -0.2 K 0 % 0 % 0 % 0 m²/s² 0 0 0.37 3
09:00 0 J/kg -0.4 K 0 % 0 % 0 % 0 m²/s² 0 0 0.23 3
10:00 0 J/kg -0.7 K 0 % 0 % 0 % 0 m²/s² 0 0 -0.22 3
11:00 0 J/kg -2.1 K 0 % 0 % 0 % 0 m²/s² 0 0 -1.65 3
12:00 337 J/kg -2.4 K 0 % 0 % 0 % 0 m²/s² 0 0 -2.4 3
13:00 347 J/kg -3.2 K 0 % 0 % 0 % 0 m²/s² 0 0 -3.11 3
14:00 642 J/kg -3.5 K 0 % 0 % 0 % 0 m²/s² 0 0 -3.5 80
15:00 766 J/kg -4.2 K 0 % 0 % 0 % 0 m²/s² 0 0 -3.99 95
16:00 936 J/kg -4.3 K 0 % 0 % 0 % 0 m²/s² 0 0 -4.3 95
17:00 921 J/kg -4.1 K 0 % 0 % 0 % 0 m²/s² 0 0 -2.99 80
18:00 964 J/kg -4.2 K 0 % 0 % 0 % 0 m²/s² 0 0 -3.57 3
19:00 781 J/kg -3.8 K 0 % 0 % 0 % 0 m²/s² 0 0 -2.84 2
20:00 635 J/kg -3.4 K 0 % 0 % 0 % 0 m²/s² 0 0 -2.71 2
21:00 465 J/kg -3.1 K 0 % 0 % 0 % 0 m²/s² 0 0 -2.14 2
22:00 284 J/kg -2.6 K 0 % 0 % 0 % 0 m²/s² 0 0 -1.61 2
23:00 107 J/kg -2.5 K 0 % 0 % 0 % 0 m²/s² 0 0 -1.63 2
 05:51     20:51    Daglengte: 15:00 Donderdag 29 Jul
00:00 54 J/kg -2.5 K 0 % 0 % 0 % 0 m²/s² 0 0 -2.5 2
01:00 11 J/kg -2.3 K 0 % 0 % 0 % 0 m²/s² 0 0 -2.3 2
02:00 0 J/kg -2.3 K 0 % 0 % 0 % 0 m²/s² 0 0 -1.67 2
03:00 0 J/kg -2.0 K 0 % 0 % 0 % 0 m²/s² 0 0 -1.28 2
04:00 0 J/kg -1.6 K 0 % 0 % 0 % 0 m²/s² 0 0 -0.79 2
05:00 0 J/kg -1.0 K 0 % 0 % 0 % 0 m²/s² 0 0 0.14 1
06:00 0 J/kg -0.9 K 0 % 0 % 0 % 0 m²/s² 0 0 0.12 2
07:00 0 J/kg -0.5 K 0 % 0 % 0 % 0 m²/s² 0 0 0.79 2
08:00 22 J/kg -0.3 K 0 % 0 % 0 % 0 m²/s² 0 0 1.2 2
09:00 125 J/kg -0.8 K 0 % 0 % 0 % 0 m²/s² 0 0 0.82 2
10:00 344 J/kg -1.3 K 0 % 0 % 0 % 0 m²/s² 0 0 0.14 2
11:00 598 J/kg -1.7 K 0 % 0 % 0 % 0 m²/s² 0 0 -0.41 2
12:00 934 J/kg -2.5 K 0 % 0 % 0 % 0 m²/s² 0 0 -1.81 2
13:00 1389 J/kg -4.0 K 0 % 0 % 0 % 0 m²/s² 0 0 -3.55 1
14:00 1874 J/kg -5.4 K 0 % 0 % 0 % 0 m²/s² 0 0 -4.92 2
Temp Baro Wind Neerslag
  EWN Forecast EWN WRFDA DWD ICON FMI HIRLAM MET Norway GFS
 05:48     20:55    Daglengte: 15:07 Vandaag
17:00 20.7° 1012.8 hPa 1.4 m/s 0.0 mm 17.3° 1012.6 hPa 2.0 m/s 11.7 mm 20.7° 1012.1 hPa 1.3 m/s -1.3 mm 23.7° 1013.9 hPa 1.5 m/s 0.0 mm 23.4° 1012.5 hPa 0.4 m/s
20:00 17.9° 1014.9 hPa 0.9 m/s 9.9 mm 19.5° 1013.8 hPa 1.9 m/s 40.8 mm 16.2° 1015.1 hPa 1.1 m/s 3.3 mm 21.7° 1015.1 hPa 0.6 m/s 0.0 mm 20.0° 1014.0 hPa 1.1 m/s
23:00 15.4° 1016.8 hPa 0.7 m/s 4.1 mm 17.4° 1015.3 hPa 3.3 m/s 51.6 mm 14.6° 1016.8 hPa 0.2 m/s 1.8 mm 16.8° 1017.8 hPa 0.4 m/s 0.0 mm 16.3° 1017.7 hPa 0.7 m/s
 05:49     20:54    Daglengte: 15:05 Morgen
02:00 14.2° 1017.2 hPa 0.8 m/s 0.0 mm 16.8° 1014.4 hPa 1.9 m/s 63.3 mm 13.8° 1017.0 hPa 0.1 m/s 0.1 mm 15.2° 1018.4 hPa 0.8 m/s 0.0 mm 16.6° 1018.3 hPa 1.0 m/s
05:00 13.4° 1017.2 hPa 0.9 m/s 4.4 mm 14.3° 1014.5 hPa 1.9 m/s 63.3 mm 13.3° 1017.0 hPa 0.8 m/s 0.2 mm 13.5° 1019.0 hPa 0.5 m/s 0.0 mm 15.6° 1017.7 hPa 1.2 m/s
08:00 15.3° 1017.4 hPa 0.7 m/s 0.0 mm 18.8° 1015.5 hPa 1.4 m/s 63.3 mm 14.6° 1017.5 hPa 0.5 m/s 0.0 mm 17.5° 1018.1 hPa 0.4 m/s 0.0 mm 18.2° 1017.3 hPa 0.5 m/s
11:00 19.4° 1016.4 hPa 0.7 m/s 0.0 mm 24.2° 1014.5 hPa 1.1 m/s 63.3 mm 18.1° 1016.7 hPa 0.6 m/s 0.0 mm 24.1° 1016.5 hPa 1.4 m/s 0.0 mm 23.3° 1015.3 hPa 1.1 m/s
14:00 22.3° 1014.4 hPa 2.1 m/s 0.0 mm 26.6° 1013.5 hPa 0.7 m/s 63.3 mm 21.1° 1014.5 hPa 1.3 m/s 0.0 mm 26.6° 1015.1 hPa 2.5 m/s 0.0 mm 26.9° 1013.0 hPa 0.7 m/s
17:00 21.7° 1014.4 hPa 1.5 m/s 4.7 mm 23.7° 1013.6 hPa 2.6 m/s 66.4 mm 21.0° 1013.7 hPa 1.5 m/s 0.2 mm 26.3° 1015.0 hPa 1.7 m/s 0.0 mm 23.3° 1013.2 hPa 1.3 m/s
20:00 19.0° 1015.6 hPa 1.1 m/s 5.0 mm 22.9° 1013.6 hPa 1.1 m/s 71.2 mm 18.0° 1015.7 hPa 0.6 m/s 2.4 mm 22.9° 1016.2 hPa 1.1 m/s 0.0 mm 20.2° 1014.4 hPa 0.4 m/s
23:00 16.3° 1016.6 hPa 0.8 m/s 0.0 mm 20.7° 1013.9 hPa 1.7 m/s 74.2 mm 16.0° 1015.9 hPa 1.6 m/s 0.0 mm 16.9° 1019.3 hPa 0.6 m/s 0.0 mm 17.8° 1017.3 hPa 1.0 m/s
 05:50     20:52    Daglengte: 15:02 Woensdag 28 Jul
02:00 15.1° 1016.0 hPa 0.6 m/s 0.0 mm 21.0° 1013.4 hPa 1.7 m/s 75.4 mm 15.7° 1014.9 hPa 0.3 m/s 0.0 mm 14.4° 1019.7 hPa 0.6 m/s 0.0 mm 16.4° 1017.2 hPa 0.5 m/s
05:00 13.8° 1015.4 hPa 0.5 m/s 0.0 mm 17.6° 1013.3 hPa 0.8 m/s 75.4 mm 15.3° 1014.6 hPa 0.1 m/s 0.0 mm 12.9° 1019.6 hPa 0.4 m/s 0.0 mm 15.6° 1016.3 hPa 0.5 m/s
08:00 16.4° 1015.9 hPa 0.8 m/s 0.0 mm 18.0° 1015.5 hPa 2.2 m/s 75.4 mm 16.1° 1015.4 hPa 0.6 m/s 0.1 mm 18.3° 1018.5 hPa 0.1 m/s 0.0 mm 18.8° 1015.5 hPa 0.5 m/s
11:00 18.5° 1015.1 hPa 0.7 m/s 8.6 mm 22.0° 1013.8 hPa 0.6 m/s 75.5 mm 18.0° 1015.3 hPa 0.6 m/s 0.4 mm 20.7° 1015.4 hPa 2.1 m/s
14:00 17.8° 1014.9 hPa 1.2 m/s 17.3 mm 20.9° 1013.8 hPa 1.5 m/s 77.0 mm 17.3° 1015.0 hPa 0.9 m/s 2.4 mm 17.4° 1017.4 hPa 1.7 m/s
17:00 16.6° 1016.5 hPa 0.7 m/s 22.5 mm 22.8° 1013.4 hPa 1.6 m/s 84.3 mm 15.9° 1016.9 hPa 0.6 m/s 5.7 mm 16.9° 1018.5 hPa 1.1 m/s
20:00 15.8° 1016.8 hPa 0.6 m/s 24.6 mm 22.5° 1013.3 hPa 1.1 m/s 86.0 mm 15.3° 1017.0 hPa 0.5 m/s 1.9 mm 18.0° 1017.9 hPa 1.0 m/s
23:00 14.2° 1017.3 hPa 0.6 m/s 0.0 mm 18.5° 1013.3 hPa 0.9 m/s 86.8 mm 13.8° 1017.8 hPa 0.4 m/s 0.0 mm 15.0° 1018.7 hPa 1.0 m/s
 05:51     20:51    Daglengte: 15:00 Donderdag 29 Jul
02:00 14.0° 1016.8 hPa 0.6 m/s 0.0 mm 20.1° 1013.2 hPa 1.1 m/s 87.7 mm 13.5° 1017.5 hPa 0.5 m/s 0.0 mm 15.1° 1017.5 hPa 1.1 m/s
05:00 13.2° 1016.5 hPa 0.5 m/s 0.0 mm 18.9° 1012.6 hPa 0.5 m/s 88.7 mm 12.6° 1017.0 hPa 0.2 m/s 0.0 mm 14.6° 1017.7 hPa 1.1 m/s
08:00 15.3° 1016.4 hPa 0.5 m/s 0.0 mm 22.8° 1012.9 hPa 1.7 m/s 88.7 mm 14.5° 1016.9 hPa 0.3 m/s 0.0 mm 19.0° 1016.8 hPa 0.4 m/s
11:00 19.7° 1015.5 hPa 0.4 m/s 0.0 mm 25.8° 1012.4 hPa 1.6 m/s 88.7 mm 18.2° 1016.2 hPa 0.1 m/s 0.0 mm 26.1° 1014.8 hPa 1.2 m/s
14:00 22.2° 1013.8 hPa 0.9 m/s 0.0 mm 25.3° 1012.3 hPa 3.4 m/s 89.5 mm 21.5° 1014.1 hPa 0.2 m/s 0.0 mm 27.9° 1013.1 hPa 1.9 m/s
17:00 23.1° 1014.4 hPa 1.8 m/s 34.1 mm 23.1° 1014.4 hPa 1.8 m/s 34.1 mm
20:00 21.0° 1015.3 hPa 1.5 m/s 36.1 mm 21.0° 1015.3 hPa 1.5 m/s 36.1 mm
23:00 18.2° 1016.5 hPa 0.1 m/s 37.0 mm 18.2° 1016.5 hPa 0.1 m/s 37.0 mm
 05:53     20:50    Daglengte: 14:57 Vrijdag 30 Jul
02:00 18.2° 1015.6 hPa 1.1 m/s 38.6 mm 18.2° 1015.6 hPa 1.1 m/s 38.6 mm
05:00 17.4° 1015.4 hPa 1.1 m/s 40.7 mm 17.4° 1015.4 hPa 1.1 m/s 40.7 mm
08:00 19.2° 1015.6 hPa 0.2 m/s 41.4 mm 19.2° 1015.6 hPa 0.2 m/s 41.4 mm
11:00 24.4° 1013.7 hPa 1.2 m/s 42.0 mm 24.4° 1013.7 hPa 1.2 m/s 42.0 mm
14:00 27.6° 1011.4 hPa 1.6 m/s 43.1 mm 27.6° 1011.4 hPa 1.6 m/s 43.1 mm
17:00 28.5° 1010.1 hPa 1.8 m/s 44.3 mm 28.5° 1010.1 hPa 1.8 m/s 44.3 mm
20:00 20.6° 1012.9 hPa 3.0 m/s 51.0 mm 20.6° 1012.9 hPa 3.0 m/s 51.0 mm
23:00 18.3° 1014.2 hPa 1.5 m/s 57.0 mm 18.3° 1014.2 hPa 1.5 m/s 57.0 mm
 05:54     20:48    Daglengte: 14:54 Zaterdag 31 Jul
02:00 18.2° 1013.3 hPa 1.6 m/s 57.3 mm 18.2° 1013.3 hPa 1.6 m/s 57.3 mm
05:00 17.9° 1013.0 hPa 1.9 m/s 60.1 mm 17.9° 1013.0 hPa 1.9 m/s 60.1 mm
08:00 19.6° 1012.2 hPa 0.5 m/s 60.2 mm 19.6° 1012.2 hPa 0.5 m/s 60.2 mm
11:00 25.2° 1010.3 hPa 1.3 m/s 60.8 mm 25.2° 1010.3 hPa 1.3 m/s 60.8 mm
14:00 23.7° 1009.8 hPa 2.1 m/s 63.5 mm 23.7° 1009.8 hPa 2.1 m/s 63.5 mm
17:00 22.3° 1010.3 hPa 1.7 m/s 68.7 mm 22.3° 1010.3 hPa 1.7 m/s 68.7 mm
20:00 19.4° 1011.3 hPa 1.3 m/s 72.6 mm 19.4° 1011.3 hPa 1.3 m/s 72.6 mm
23:00 18.0° 1012.8 hPa 1.4 m/s 75.8 mm 18.0° 1012.8 hPa 1.4 m/s 75.8 mm
 05:55     20:47    Daglengte: 14:52 Zondag 01 Aug
02:00 17.1° 1012.0 hPa 1.6 m/s 79.2 mm 17.1° 1012.0 hPa 1.6 m/s 79.2 mm
05:00 16.6° 1010.9 hPa 1.4 m/s 86.4 mm 16.6° 1010.9 hPa 1.4 m/s 86.4 mm
08:00 15.3° 1009.8 hPa 1.9 m/s 87.9 mm 15.3° 1009.8 hPa 1.9 m/s 87.9 mm
11:00 14.2° 1011.5 hPa 2.4 m/s 93.4 mm 14.2° 1011.5 hPa 2.4 m/s 93.4 mm
14:00 11.7° 1014.9 hPa 1.0 m/s 105.5 mm 11.7° 1014.9 hPa 1.0 m/s 105.5 mm
17:00 14.6° 1014.3 hPa 0.7 m/s 109.0 mm 14.6° 1014.3 hPa 0.7 m/s 109.0 mm
20:00 14.8° 1014.0 hPa 0.4 m/s 109.0 mm 14.8° 1014.0 hPa 0.4 m/s 109.0 mm
23:00 12.9° 1015.7 hPa 1.0 m/s 109.0 mm 12.9° 1015.7 hPa 1.0 m/s 109.0 mm
 05:56     20:46    Daglengte: 14:50 Maandag 02 Aug
02:00 13.0° 1016.2 hPa 0.7 m/s 109.0 mm 13.0° 1016.2 hPa 0.7 m/s 109.0 mm
05:00 12.3° 1016.6 hPa 0.4 m/s 109.1 mm 12.3° 1016.6 hPa 0.4 m/s 109.1 mm
08:00 14.8° 1016.9 hPa 0.4 m/s 109.1 mm 14.8° 1016.9 hPa 0.4 m/s 109.1 mm
11:00 19.0° 1016.0 hPa 1.5 m/s 109.3 mm 19.0° 1016.0 hPa 1.5 m/s 109.3 mm
14:00 19.5° 1016.0 hPa 1.6 m/s 109.6 mm 19.5° 1016.0 hPa 1.6 m/s 109.6 mm
20:00 16.6° 1017.4 hPa 1.3 m/s 110.6 mm 16.6° 1017.4 hPa 1.3 m/s 110.6 mm
 05:58     20:44    Daglengte: 14:46 Dinsdag 03 Aug
02:00 13.8° 1019.0 hPa 0.7 m/s 110.6 mm 13.8° 1019.0 hPa 0.7 m/s 110.6 mm
08:00 15.5° 1019.1 hPa 0.8 m/s 111.4 mm 15.5° 1019.1 hPa 0.8 m/s 111.4 mm
14:00 20.9° 1017.9 hPa 1.3 m/s 114.0 mm 20.9° 1017.9 hPa 1.3 m/s 114.0 mm
20:00 17.4° 1019.5 hPa 0.8 m/s 116.7 mm 17.4° 1019.5 hPa 0.8 m/s 116.7 mm
 05:59     20:43    Daglengte: 14:44 Woensdag 04 Aug
02:00 13.4° 1021.0 hPa 1.1 m/s 116.8 mm 13.4° 1021.0 hPa 1.1 m/s 116.8 mm
08:00 17.3° 1019.7 hPa 0.8 m/s 116.8 mm 17.3° 1019.7 hPa 0.8 m/s 116.8 mm
14:00 28.0° 1015.4 hPa 1.3 m/s 116.8 mm 28.0° 1015.4 hPa 1.3 m/s 116.8 mm
20:00 21.5° 1015.9 hPa 1.0 m/s 117.0 mm 21.5° 1015.9 hPa 1.0 m/s 117.0 mm
 06:00     20:41    Daglengte: 14:41 Donderdag 05 Aug
02:00 16.2° 1018.1 hPa 1.8 m/s 118.9 mm 16.2° 1018.1 hPa 1.8 m/s 118.9 mm
08:00 18.8° 1015.7 hPa 0.9 m/s 121.0 mm 18.8° 1015.7 hPa 0.9 m/s 121.0 mm
14:00 23.2° 1013.6 hPa 0.2 m/s 1.7 mm
20:00 18.3° 1013.0 hPa 0.2 m/s 4.1 mm
 06:01     20:40    Daglengte: 14:39 Vrijdag 06 Aug
02:00 15.2° 1013.3 hPa 1.0 m/s 4.1 mm
08:00 16.1° 1011.9 hPa 0.7 m/s 2.7 mm
14:00 20.4° 1010.5 hPa 0.6 m/s 4.2 mm
20:00 16.4° 1010.5 hPa 0.6 m/s 5.3 mm
 06:03     20:38    Daglengte: 14:35 Zaterdag 07 Aug
02:00 14.0° 1011.7 hPa 0.7 m/s 3.1 mm
08:00 14.7° 1011.4 hPa 0.8 m/s 2.9 mm
14:00 18.7° 1010.6 hPa 1.4 m/s 3.0 mm
20:00 15.7° 1011.6 hPa 1.3 m/s 3.0 mm
 06:04     20:37    Daglengte: 14:33 Zondag 08 Aug
02:00 12.7° 1014.2 hPa 0.7 m/s 2.4 mm
08:00 13.8° 1014.8 hPa 0.7 m/s 1.2 mm
14:00 19.4° 1014.1 hPa 1.3 m/s 1.5 mm
20:00 16.0° 1015.4 hPa 1.3 m/s 2.7 mm
 06:05     20:35    Daglengte: 14:30 Maandag 09 Aug
02:00 12.7° 1017.8 hPa 0.6 m/s 1.5 mm
08:00 14.7° 1017.6 hPa 0.3 m/s 0.9 mm
14:00 21.6° 1016.6 hPa 1.4 m/s 1.2 mm
20:00 17.1° 1017.4 hPa 1.0 m/s 1.5 mm
 06:07     20:34    Daglengte: 14:27 Dinsdag 10 Aug
02:00 13.8° 1019.6 hPa 0.5 m/s 0.9 mm
08:00 15.1° 1019.5 hPa 0.3 m/s 1.3 mm
14:00 22.4° 1017.9 hPa 1.2 m/s 0.9 mm
FMI Hirlam - 7.5 km EWN WRFDA - 12 km DWD ICON - 7 km GFS - 25 km Basiskaart






























































Updatetijd (Europe/Amsterdam) Resolutie Lengte Stap
FMI Hirlam 14:00, 20:00, 02:00, 08:00 7.5 km 49h 1h
EWN WRFDA 10:30, 16:30, 22:30, 04:30 12 km 73h 1h
DWD ICON 11:45, 17:45, 23:45, 05:45 7 km 75h 1h
GFS 14:15, 20:15, 02:15, 08:15 25 km 237h 3h
30+ mm
25-30 mm
20-25 mm
15-20 mm
10-15 mm
6-10 mm
4-6 mm
2-4 mm
1-2 mm
0.5-1 mm
0.2-0.5 mm
0.1-0.2 mm
30+ mm
25-30 mm
20-25 mm
15-20 mm
10-15 mm
6-10 mm
4-6 mm
2-4 mm
1-2 mm
0.5-1 mm
0.2-0.5 mm
0.1-0.2 mm
Sneeuwval
Natte sneeuw
Hagel
Vorst
30+ mm
25-30 mm
20-25 mm
15-20 mm
10-15 mm
6-10 mm
4-6 mm
2-4 mm
1-2 mm
0.5-1 mm
0.2-0.5 mm
0.1-0.2 mm
Sneeuwval
Natte sneeuw
Hagel
Vorst
Onweer
50 mm
40 mm
30 mm
26 mm
22 mm
18 mm
14 mm
10 mm
9 mm
8 mm
7 mm
6 mm
5 mm
4.5 mm
4 mm
3.5 mm
3 mm
2.5 mm
2 mm
1.5 mm
1 mm
0.8 mm
0.6 mm
0.4 mm
0.2 mm
0.05 mm
35°
30°
25°
20°
15°
10°
-5°
-10°
-15°
-20°
-25°
-30°
-35°
33> m/s
29 m/s
25 m/s
21 m/s
17 m/s
14 m/s
11 m/s
8 m/s
5 m/s
3 m/s
0 m/s
2600 J/kg
2400 J/kg
2200 J/kg
2000 J/kg
1800 J/kg
1600 J/kg
1400 J/kg
1200 J/kg
1000 J/kg
800 J/kg
600 J/kg
400 J/kg
200 J/kg
70 dBZ
65 dBZ
60 dBZ
55 dBZ
50 dBZ
45 dBZ
40 dBZ
35 dBZ
30 dBZ
25 dBZ
20 dBZ
15 dBZ
10 dBZ
5 dBZ
-1 K
-2 K
-3 K
-4 K
-5 K
-6 K
-7 K
-8 K
-9 K
950 m²/s²
900 m²/s²
850 m²/s²
800 m²/s²
750 m²/s²
700 m²/s²
650 m²/s²
600 m²/s²
550 m²/s²
500 m²/s²
450 m²/s²
400 m²/s²
350 m²/s²
300 m²/s²
250 m²/s²
200 m²/s²
150 m²/s²
100 m²/s²
46 m/s
44 m/s
42 m/s
40 m/s
38 m/s
36 m/s
34 m/s
32 m/s
30 m/s
28 m/s
26 m/s
24 m/s
22 m/s
20 m/s
16 m/s
12 m/s
8 m/s
4 m/s
30 m/s
28 m/s
26 m/s
24 m/s
22 m/s
20 m/s
18 m/s
16 m/s
14 m/s
12 m/s
10 m/s
8 m/s
6 m/s
4 m/s
2 m/s
3.0
2.8
2.6
2.4
2.2
2.0
1.8
1.6
1.4
1.2
1.0
0.8
0.6
0.4
0.2
15
14
13
12
11
10
9
8
7
6
5
4
3
2
1
90%
80%
70%
60%
50%
40%
30%
20%
10%
42
40
38
36
34
32
30
28
26
24
22
20
18
16
14
12
90+ cm